This is the latest recevied weather packets stored in our database for station/object VK4AB-13. If no packets are shown the sender has not sent any weather packets the latest 10 day(s).
| Time | Temp. | Humidity | Pressure | Rain* | Wind** | Luminosity | Snow |
|---|---|---|---|---|---|---|---|
| 1777763331 | 21.67° C | 77% | 1021.6 hPa | 0 mm | - | 432 W/m² | - |
| 1777763031 | 21.67° C | 79% | 1021.5 hPa | 0 mm | - | 411 W/m² | - |
| 1777762772 | 21.11° C | 80% | 1021.5 hPa | 0 mm | - | 452 W/m² | - |
| 1777762731 | 21.11° C | 79% | 1021.6 hPa | 0 mm | - | 490 W/m² | - |
| 1777762431 | 21.11° C | 80% | 1021.5 hPa | 0 mm | - | 452 W/m² | - |
| 1777762132 | 20.56° C | 82% | 1021.4 hPa | 0 mm | - | 399 W/m² | - |
| 1777761832 | 20° C | 82% | 1021.4 hPa | 0 mm | - | 408 W/m² | - |
| 1777761532 | 20° C | 83% | 1021.4 hPa | 0 mm | - | 424 W/m² | - |
| 1777761232 | 19.44° C | 87% | 1021.3 hPa | 0 mm | - | 403 W/m² | - |
| 1777760932 | 18.89° C | 88% | 1021.3 hPa | 0 mm | - | 380 W/m² | - |
| 1777760632 | 18.89° C | 90% | 1021.4 hPa | 0 mm | - | 376 W/m² | - |
| 1777760332 | 18.33° C | 91% | 1021.4 hPa | 0 mm | - | 359 W/m² | - |
| 1777760032 | 17.78° C | 92% | 1021.4 hPa | 0 mm | - | 350 W/m² | - |
| 1777759732 | 17.78° C | 93% | 1021.2 hPa | 0 mm | - | 253 W/m² | - |
| 1777759432 | 17.78° C | 93% | 1021.2 hPa | 0 mm | - | 167 W/m² | - |
| 1777759132 | 17.22° C | 94% | 1021 hPa | 0 mm | - | 178 W/m² | - |
| 1777758832 | 17.22° C | 95% | 1021 hPa | 0 mm | - | 262 W/m² | - |
| 1777758532 | 17.22° C | 95% | 1020.9 hPa | 0 mm | - | 278 W/m² | - |
| 1777758232 | 16.67° C | 95% | 1020.9 hPa | 0 mm | - | 260 W/m² | - |
| 1777757932 | 16.67° C | 95% | 1020.8 hPa | 0 mm | - | 214 W/m² | - |
| 1777757632 | 16.11° C | 95% | 1020.9 hPa | 0 mm | - | 104 W/m² | - |
| 1777757332 | 16.11° C | 95% | 1020.9 hPa | 0 mm | - | 214 W/m² | - |
| 1777757032 | 16.11° C | 95% | 1020.9 hPa | 0 mm | - | 179 W/m² | - |
| 1777756732 | 16.11° C | 95% | 1020.8 hPa | 0 mm | - | 69 W/m² | - |
| 1777756432 | 16.11° C | 95% | 1020.7 hPa | 0 mm | - | 35 W/m² | - |
* Rain latest hour (hover to see other rain measurements)
** Current wind speed in m/s (hover to see current wind gust speed)